DELTA 1 R/B(1), 10793

Orbit data source: Space-Track

DELTA 1 R/B(1), 10793 is space debris in LEO originally from a launch on Fri, 07 Apr 1978 UTC launched from the Air Force Eastern Test Range (AFETR). Debris objects in space refer to the collection of defunct objects orbiting the Earth. Examples of debris include non-operational satellites, rocket bodies, and fragments generated from explosions, collisions, or faulty payload assembly.

Loading next visibility...
Identifier
10793, 1978-039B
Orbit
LEO
Last TLE update
21 hours ago
Origin
Manufacturer
MDAC-HB
Mission
Spacecraft
Bus & Motor
DELTA/TR-201, Unknown motor
Mass
845 kg wet, 845 kg dry
Launch date (UTC)
1978-04-07 (47 years ago)
Launch vehicle
Unknown
Launch site
Air Force Eastern Test Range (AFETR)
Object type
Payload
Rocket body
Debris
Shape & HBR
Cyl + 1 Nozzle, 6.39 m
Radar Cross Section
7.796 m², Large (>1 m²)

Expand to show TLE details & history

TLE from 21 hours ago
0 DELTA 1 R/B(1)
1 10793U 78039B   25189.86919515  .00000171  00000-0  36328-4 0  9991
2 10793  28.2249 245.2759 0875680  87.6296 282.4095 13.07275221248830
Epoch: 2025-07-08T20:51Z
TLE epoch observation values (Epoch: 2025-07-08T20:51:38.46Z)
Latitude
-0.00004°
Longitude
5.30758°
Altitude
1,145.878 km
Speed
7.323 km/s
True Right ascension
16h 21m 06s
True Declination
0° 00' 00"
Sunlit
Object was in full shadow at epoch
Visualization orbit readout
Latitude
27.08528°
Longitude
72.54783°
Altitude
603.086 km
Speed
7.868 km/s
Apparent Right ascension
19h 23m 55s
Apparent Declination
-5° 08' 11"
Sunlit
Object is in full shadow
Visualization observer readout
Local Sidereal Time
05:32:49
Azimuth
316.946° NNW
Elevation
-47.166°
Doppler factor
1
Orbital elements
Apogee altitude
1,904.509 km
Perigee altitude
570.717 km
Semi-major axis
7,615.75 km
Eccentricity
0.08757
Inclination
28.2249°
RAAN
245.2759°
Arg. of periapsis
87.6296°
True anomaly
Unknown
Mean anomaly
282.4095°
Eccentric anomaly
Unknown
Mean motion
3.26568 °/min
Orbital period
110.24 mins
BSTAR
0.000036328
Loading maneuver chart data...
Loading SW <> Apogee altitude chart data...
Loading historical data...
Loading historical data...
Loading historical data...
Loading historical data...
Loading historical data...
Loading historical data...
Loading historical data...
Other satellites on launch #39 in the year 1978 (1978-04-07 UTC)

DELTA 1 R/B(1) Visibility forecast

Observer location: undefined°, undefined°

Span
Click to sort rows by Start time (UTC) header in descending order
Start Az.
Max El. time (UTC)
Max El. Az.
Max El.
End time (UTC)
End Az.
4 mins2025-07-10 07:58:41.997Z199.818° SSW2025-07-10 08:00:41.997Z172.833° S14.452°2025-07-10 08:02:41.997Z143.347° SSE
|